Time,TemperatureF,DewpointF,PressureIn,WindDirection,WindDirectionDegrees,WindSpeedMPH,WindSpeedGustMPH,Humidity,HourlyPrecipIn,Conditions,Clouds,dailyrainin,SolarRadiationWatts/m^2,SoftwareType,DateUTC
2013-03-27 00:00:00,32.1,26.3,30.35,NW,316,0.0,0.0,79,0.00,,---,0.00,0.00,VWS V14.00,2013-03-27 05:00:00,
2013-03-27 00:05:00,32.0,26.5,30.34,NW,316,0.0,0.0,80,0.00,,---,0.00,0.00,VWS V14.00,2013-03-27 05:05:00,
2013-03-27 00:10:00,31.9,26.4,30.34,NW,316,0.0,0.0,80,0.00,,---,0.00,0.00,VWS V14.00,2013-03-27 05:10:00,
2013-03-27 00:15:00,32.0,27.1,30.34,NW,316,0.0,0.0,82,0.00,,---,0.00,0.00,VWS V14.00,2013-03-27 05:15:00,
2013-03-27 00:20:00,32.1,26.9,30.34,NW,316,0.0,0.0,81,0.00,,---,0.00,0.00,VWS V14.00,2013-03-27 05:20:00,
2013-03-27 00:25:00,32.2,27.0,30.34,NW,316,0.0,0.0,81,0.00,,---,0.00,0.00,VWS V14.00,2013-03-27 05:25:00,
2013-03-27 00:30:00,32.2,27.0,30.34,NW,316,0.0,0.0,81,0.00,,---,0.00,0.00,VWS V14.00,2013-03-27 05:30:00,
2013-03-27 00:35:00,32.2,27.3,30.34,NW,316,0.0,0.0,82,0.00,,---,0.00,0.00,VWS V14.00,2013-03-27 05:35:00,
2013-03-27 00:40:00,32.4,27.5,30.34,NW,316,0.0,0.0,82,0.00,,---,0.00,0.00,VWS V14.00,2013-03-27 05:40:00,
2013-03-27 00:45:00,32.4,26.9,30.34,NW,316,0.0,0.0,80,0.00,,---,0.00,0.00,VWS V14.00,2013-03-27 05:45:00,
2013-03-27 00:50:00,32.3,27.1,30.34,NW,316,0.0,0.0,81,0.00,,---,0.00,0.00,VWS V14.00,2013-03-27 05:50:00,
2013-03-27 00:55:00,32.2,27.0,30.34,NW,316,0.0,0.0,81,0.00,,---,0.00,0.00,VWS V14.00,2013-03-27 05:55:00,
2013-03-27 01:00:00,32.0,26.8,30.34,NW,316,0.0,0.0,81,0.00,,---,0.00,0.00,VWS V14.00,2013-03-27 06:00:00,
2013-03-27 01:05:00,31.9,26.7,30.34,NW,316,0.0,0.0,81,0.00,,---,0.00,0.00,VWS V14.00,2013-03-27 06:05:00,
2013-03-27 01:10:00,31.7,26.5,30.34,NW,316,0.0,0.0,81,0.00,,---,0.00,0.00,VWS V14.00,2013-03-27 06:10:00,
2013-03-27 01:15:00,31.4,26.2,30.34,NW,316,0.0,0.0,81,0.00,,---,0.00,0.00,VWS V14.00,2013-03-27 06:15:00,
2013-03-27 01:20:00,31.2,26.1,30.34,NW,316,0.0,0.0,81,0.00,,---,0.00,0.00,VWS V14.00,2013-03-27 06:20:00,
2013-03-27 01:25:00,31.0,26.5,30.34,NW,316,0.0,0.0,83,0.00,,---,0.00,0.00,VWS V14.00,2013-03-27 06:25:00,
2013-03-27 01:30:00,30.9,26.6,30.34,NW,316,0.0,0.0,84,0.00,,---,0.00,0.00,VWS V14.00,2013-03-27 06:30:00,
2013-03-27 01:35:00,30.8,26.5,30.34,NW,316,0.0,0.0,84,0.00,,---,0.00,0.00,VWS V14.00,2013-03-27 06:35:00,
2013-03-27 01:40:00,30.8,26.8,30.34,NW,316,0.0,0.0,85,0.00,,---,0.00,0.00,VWS V14.00,2013-03-27 06:40:00,
2013-03-27 01:45:00,30.8,26.8,30.34,NW,316,0.0,0.0,85,0.00,,---,0.00,0.00,VWS V14.00,2013-03-27 06:45:00,
2013-03-27 01:50:00,30.8,26.8,30.34,NW,316,0.0,0.0,85,0.00,,---,0.00,0.00,VWS V14.00,2013-03-27 06:50:00,
2013-03-27 01:55:00,30.7,26.7,30.34,NW,316,0.0,0.0,85,0.00,,---,0.00,0.00,VWS V14.00,2013-03-27 06:55:00,
2013-03-27 02:00:00,30.7,26.7,30.34,NW,316,0.0,0.0,85,0.00,,---,0.00,0.00,VWS V14.00,2013-03-27 07:00:00,
2013-03-27 02:05:00,30.5,26.2,30.34,NW,316,0.0,0.0,84,0.00,,---,0.00,0.00,VWS V14.00,2013-03-27 07:05:00,
2013-03-27 02:10:00,30.3,26.1,30.34,NW,316,0.0,0.0,84,0.00,,---,0.00,0.00,VWS V14.00,2013-03-27 07:10:00,
2013-03-27 02:15:00,30.1,26.1,30.34,NW,316,0.0,0.0,85,0.00,,---,0.00,0.00,VWS V14.00,2013-03-27 07:15:00,
2013-03-27 02:20:00,30.0,26.0,30.34,NW,316,0.0,0.0,85,0.00,,---,0.00,0.00,VWS V14.00,2013-03-27 07:20:00,
2013-03-27 02:25:00,29.9,26.0,30.34,NW,316,0.0,0.0,85,0.00,,---,0.00,0.00,VWS V14.00,2013-03-27 07:25:00,
2013-03-27 02:30:00,29.8,25.9,30.34,NW,316,0.0,0.0,85,0.00,,---,0.00,0.00,VWS V14.00,2013-03-27 07:30:00,
2013-03-27 02:35:00,29.8,26.1,30.33,NW,316,0.0,0.0,86,0.00,,---,0.00,0.00,VWS V14.00,2013-03-27 07:35:00,
2013-03-27 02:40:00,30.0,26.9,30.33,NW,316,0.0,0.0,88,0.00,,---,0.00,0.00,VWS V14.00,2013-03-27 07:40:00,
2013-03-27 02:45:00,30.2,27.1,30.33,NW,316,0.0,0.0,88,0.00,,---,0.00,0.00,VWS V14.00,2013-03-27 07:45:00,
2013-03-27 02:50:00,30.3,26.9,30.34,NW,316,0.0,0.0,87,0.00,,---,0.00,0.00,VWS V14.00,2013-03-27 07:50:00,
2013-03-27 02:55:00,30.3,26.9,30.34,NW,316,0.0,0.0,87,0.00,,---,0.00,0.00,VWS V14.00,2013-03-27 07:55:00,
2013-03-27 03:00:00,30.3,26.6,30.34,NW,316,0.0,0.0,86,0.00,,---,0.00,0.00,VWS V14.00,2013-03-27 08:00:00,
2013-03-27 03:05:00,30.2,26.5,30.34,NW,316,0.0,0.0,86,0.00,,---,0.00,0.00,VWS V14.00,2013-03-27 08:05:00,
2013-03-27 03:10:00,30.0,26.3,30.33,NW,316,0.0,0.0,86,0.00,,---,0.00,0.00,VWS V14.00,2013-03-27 08:10:00,
2013-03-27 03:15:00,29.9,26.2,30.34,NW,316,0.0,0.0,86,0.00,,---,0.00,0.00,VWS V14.00,2013-03-27 08:15:00,
2013-03-27 03:20:00,29.8,26.1,30.34,NW,316,0.0,0.0,86,0.00,,---,0.00,0.00,VWS V14.00,2013-03-27 08:20:00,
2013-03-27 03:25:00,29.9,26.2,30.34,NW,316,0.0,0.0,86,0.00,,---,0.00,0.00,VWS V14.00,2013-03-27 08:25:00,
2013-03-27 03:30:00,29.9,26.5,30.34,NW,316,0.0,0.0,87,0.00,,---,0.00,0.00,VWS V14.00,2013-03-27 08:30:00,
2013-03-27 03:35:00,30.0,26.6,30.34,NW,316,0.0,0.0,87,0.00,,---,0.00,0.00,VWS V14.00,2013-03-27 08:35:00,
2013-03-27 03:40:00,30.2,26.8,30.33,NW,316,0.0,0.0,87,0.00,,---,0.00,0.00,VWS V14.00,2013-03-27 08:40:00,
2013-03-27 03:45:00,30.6,26.9,30.34,NW,316,0.0,0.0,86,0.00,,---,0.00,0.00,VWS V14.00,2013-03-27 08:45:00,
2013-03-27 03:50:00,30.5,26.5,30.34,NW,316,0.0,0.0,85,0.00,,---,0.00,0.00,VWS V14.00,2013-03-27 08:50:00,
2013-03-27 03:55:00,30.5,26.8,30.34,NW,316,0.0,0.0,86,0.00,,---,0.00,0.00,VWS V14.00,2013-03-27 08:55:00,
2013-03-27 04:00:00,30.3,26.3,30.34,NW,316,0.0,0.0,85,0.00,,---,0.00,0.00,VWS V14.00,2013-03-27 09:00:00,
2013-03-27 04:05:00,30.1,26.4,30.34,NW,316,0.0,0.0,86,0.00,,---,0.00,0.00,VWS V14.00,2013-03-27 09:05:00,
2013-03-27 04:10:00,29.9,26.0,30.34,NW,316,0.0,0.0,85,0.00,,---,0.00,0.00,VWS V14.00,2013-03-27 09:10:00,
2013-03-27 04:15:00,29.6,26.2,30.34,NW,316,0.0,0.0,87,0.00,,---,0.00,0.00,VWS V14.00,2013-03-27 09:15:00,
2013-03-27 04:20:00,29.6,26.2,30.34,NW,316,0.0,0.0,87,0.00,,---,0.00,0.00,VWS V14.00,2013-03-27 09:20:00,
2013-03-27 04:25:00,29.5,26.4,30.34,NW,316,0.0,0.0,88,0.00,,---,0.00,0.00,VWS V14.00,2013-03-27 09:25:00,
2013-03-27 04:30:00,29.3,25.9,30.34,NW,316,0.0,0.0,87,0.00,,---,0.00,0.00,VWS V14.00,2013-03-27 09:30:00,
2013-03-27 04:35:00,29.0,25.6,30.34,NW,316,0.0,0.0,87,0.00,,---,0.00,0.00,VWS V14.00,2013-03-27 09:35:00,
2013-03-27 04:40:00,28.9,25.5,30.34,NW,316,0.0,0.0,87,0.00,,---,0.00,0.00,VWS V14.00,2013-03-27 09:40:00,
2013-03-27 04:45:00,28.8,25.7,30.35,NW,316,0.0,0.0,88,0.00,,---,0.00,0.00,VWS V14.00,2013-03-27 09:45:00,
2013-03-27 04:50:00,28.6,25.2,30.35,NW,316,0.0,0.0,87,0.00,,---,0.00,0.00,VWS V14.00,2013-03-27 09:50:00,
2013-03-27 04:55:00,28.6,25.5,30.35,NW,316,0.0,0.0,88,0.00,,---,0.00,0.00,VWS V14.00,2013-03-27 09:55:00,
2013-03-27 05:00:00,28.5,25.4,30.35,NW,316,0.0,0.0,88,0.00,,---,0.00,0.00,VWS V14.00,2013-03-27 10:00:00,
2013-03-27 05:05:00,28.5,25.4,30.35,NW,316,0.0,0.0,88,0.00,,---,0.00,0.00,VWS V14.00,2013-03-27 10:05:00,
2013-03-27 05:10:00,28.6,25.5,30.35,NW,316,0.0,0.0,88,0.00,,---,0.00,0.00,VWS V14.00,2013-03-27 10:10:00,
2013-03-27 05:15:00,28.6,25.5,30.35,NW,316,0.0,0.0,88,0.00,,---,0.00,0.00,VWS V14.00,2013-03-27 10:15:00,
2013-03-27 05:20:00,28.5,25.4,30.35,NW,316,0.0,0.0,88,0.00,,---,0.00,0.00,VWS V14.00,2013-03-27 10:20:00,
2013-03-27 05:25:00,28.5,25.4,30.35,NW,316,0.0,0.0,88,0.00,,---,0.00,0.00,VWS V14.00,2013-03-27 10:25:00,
2013-03-27 05:30:00,28.5,25.4,30.35,NW,316,0.0,0.0,88,0.00,,---,0.00,0.00,VWS V14.00,2013-03-27 10:30:00,
2013-03-27 05:35:00,28.7,25.6,30.35,NW,316,0.0,0.0,88,0.00,,---,0.00,0.00,VWS V14.00,2013-03-27 10:35:00,
2013-03-27 05:40:00,28.9,26.1,30.35,NW,316,0.0,0.0,89,0.00,,---,0.00,0.00,VWS V14.00,2013-03-27 10:40:00,
2013-03-27 05:45:00,29.2,26.4,30.35,NW,316,0.0,0.0,89,0.00,,---,0.00,0.00,VWS V14.00,2013-03-27 10:45:00,
2013-03-27 05:50:00,29.4,26.6,30.35,NW,316,0.0,0.0,89,0.00,,---,0.00,0.00,VWS V14.00,2013-03-27 10:50:00,
2013-03-27 05:55:00,29.7,26.9,30.35,NW,316,0.0,0.0,89,0.00,,---,0.00,0.00,VWS V14.00,2013-03-27 10:55:00,
2013-03-27 06:00:00,29.9,27.1,30.35,NW,316,0.0,0.0,89,0.00,,---,0.00,0.00,VWS V14.00,2013-03-27 11:00:00,
2013-03-27 06:05:00,30.1,27.0,30.35,NW,316,0.0,0.0,88,0.00,,---,0.00,0.00,VWS V14.00,2013-03-27 11:05:00,
2013-03-27 06:10:00,29.9,26.8,30.35,NW,316,0.0,0.0,88,0.00,,---,0.00,0.00,VWS V14.00,2013-03-27 11:10:00,
2013-03-27 06:15:00,29.8,26.4,30.36,NW,316,0.0,0.0,87,0.00,,---,0.00,0.00,VWS V14.00,2013-03-27 11:15:00,
2013-03-27 06:20:00,29.7,26.3,30.36,NW,316,0.0,0.0,87,0.00,,---,0.00,0.00,VWS V14.00,2013-03-27 11:20:00,
2013-03-27 06:25:00,29.6,26.5,30.36,NW,316,0.0,0.0,88,0.00,,---,0.00,0.00,VWS V14.00,2013-03-27 11:25:00,
2013-03-27 06:30:00,29.4,26.3,30.36,NW,316,0.0,0.0,88,0.00,,---,0.00,0.00,VWS V14.00,2013-03-27 11:30:00,
2013-03-27 06:35:00,29.3,26.2,30.36,NW,316,0.0,0.0,88,0.00,,---,0.00,0.00,VWS V14.00,2013-03-27 11:35:00,
2013-03-27 06:40:00,29.2,26.1,30.36,NW,316,0.0,0.0,88,0.00,,---,0.00,0.00,VWS V14.00,2013-03-27 11:40:00,
2013-03-27 06:45:00,29.1,26.0,30.36,NW,316,0.0,0.0,88,0.00,,---,0.00,0.00,VWS V14.00,2013-03-27 11:45:00,
2013-03-27 06:50:00,29.0,25.9,30.36,NW,316,0.0,0.0,88,0.00,,---,0.00,0.00,VWS V14.00,2013-03-27 11:50:00,
2013-03-27 06:55:00,28.7,25.6,30.37,NW,316,0.0,0.0,88,0.00,,---,0.00,5.00,VWS V14.00,2013-03-27 11:55:00,
2013-03-27 07:00:00,28.5,25.4,30.37,NW,316,0.0,0.0,88,0.00,,---,0.00,9.00,VWS V14.00,2013-03-27 12:00:00,
2013-03-27 07:05:00,28.4,25.3,30.36,NW,316,0.0,0.0,88,0.00,,---,0.00,11.00,VWS V14.00,2013-03-27 12:05:00,
2013-03-27 07:10:00,28.3,25.2,30.37,NW,316,0.0,0.0,88,0.00,,---,0.00,14.00,VWS V14.00,2013-03-27 12:10:00,
2013-03-27 07:15:00,28.5,25.7,30.37,NW,316,0.0,0.0,89,0.00,,---,0.00,18.00,VWS V14.00,2013-03-27 12:15:00,
2013-03-27 07:20:00,28.8,26.2,30.37,NW,316,0.0,0.0,90,0.00,,---,0.00,23.00,VWS V14.00,2013-03-27 12:20:00,
2013-03-27 07:25:00,29.2,26.6,30.37,NW,316,0.0,0.0,90,0.00,,---,0.00,30.00,VWS V14.00,2013-03-27 12:25:00,
2013-03-27 07:30:00,29.7,27.1,30.37,NW,316,0.0,0.0,90,0.00,,---,0.00,28.00,VWS V14.00,2013-03-27 12:30:00,
2013-03-27 07:35:00,29.9,27.3,30.37,NW,316,0.0,0.0,90,0.00,,---,0.00,65.00,VWS V14.00,2013-03-27 12:35:00,
2013-03-27 07:40:00,30.1,27.3,30.37,NW,316,0.0,0.0,89,0.00,,---,0.00,79.00,VWS V14.00,2013-03-27 12:40:00,
2013-03-27 07:45:00,30.1,27.5,30.37,NW,316,0.0,0.0,90,0.00,,---,0.00,98.00,VWS V14.00,2013-03-27 12:45:00,
2013-03-27 07:50:00,30.3,27.7,30.37,NW,316,0.0,0.0,90,0.00,,---,0.00,116.00,VWS V14.00,2013-03-27 12:50:00,
2013-03-27 07:55:00,30.5,27.9,30.38,NW,316,0.0,0.0,90,0.00,,---,0.00,135.00,VWS V14.00,2013-03-27 12:55:00,
2013-03-27 08:00:00,30.8,28.5,30.38,NW,316,0.0,0.0,91,0.00,,---,0.00,155.00,VWS V14.00,2013-03-27 13:00:00,
2013-03-27 08:05:00,31.2,28.9,30.38,NW,316,0.0,0.0,91,0.00,,---,0.00,176.00,VWS V14.00,2013-03-27 13:05:00,
2013-03-27 08:10:00,31.6,29.3,30.38,NW,316,0.0,0.0,91,0.00,,---,0.00,192.00,VWS V14.00,2013-03-27 13:10:00,
2013-03-27 08:15:00,32.1,30.0,30.39,NW,316,0.0,0.0,92,0.00,,---,0.00,213.00,VWS V14.00,2013-03-27 13:15:00,
2013-03-27 08:20:00,32.8,30.7,30.39,NW,316,0.0,0.0,92,0.00,,---,0.00,236.00,VWS V14.00,2013-03-27 13:20:00,
2013-03-27 08:25:00,33.4,31.1,30.39,NW,316,0.0,0.0,91,0.00,,---,0.00,253.00,VWS V14.00,2013-03-27 13:25:00,
2013-03-27 08:30:00,33.9,31.6,30.39,NW,316,0.0,0.0,91,0.00,,---,0.00,274.00,VWS V14.00,2013-03-27 13:30:00,
2013-03-27 08:35:00,34.7,32.1,30.39,NW,316,0.0,0.0,90,0.00,,---,0.00,295.00,VWS V14.00,2013-03-27 13:35:00,
2013-03-27 08:40:00,36.0,32.5,30.40,West,261,3.0,5.0,87,0.00,,---,0.00,311.00,VWS V14.00,2013-03-27 13:40:00,
2013-03-27 08:45:00,37.4,32.1,30.40,WSW,255,5.0,6.0,81,0.00,,---,0.00,334.00,VWS V14.00,2013-03-27 13:45:00,
2013-03-27 08:50:00,38.4,32.5,30.40,WSW,244,5.0,6.0,79,0.00,,---,0.00,357.00,VWS V14.00,2013-03-27 13:50:00,
2013-03-27 08:55:00,39.1,32.5,30.40,WSW,246,2.0,9.0,77,0.00,,---,0.00,380.00,VWS V14.00,2013-03-27 13:55:00,
2013-03-27 09:00:00,39.7,32.4,30.40,SW,224,4.0,5.0,75,0.00,,---,0.00,401.00,VWS V14.00,2013-03-27 14:00:00,
2013-03-27 09:05:00,40.2,32.6,30.40,WSW,244,0.0,6.0,74,0.00,,---,0.00,418.00,VWS V14.00,2013-03-27 14:05:00,
2013-03-27 09:10:00,40.8,32.8,30.40,WSW,251,2.0,6.0,73,0.00,,---,0.00,438.00,VWS V14.00,2013-03-27 14:10:00,
2013-03-27 09:15:00,41.3,33.3,30.40,SW,231,5.0,7.0,73,0.00,,---,0.00,454.00,VWS V14.00,2013-03-27 14:15:00,
2013-03-27 09:20:00,41.8,33.1,30.40,WSW,245,1.0,7.0,71,0.00,,---,0.00,471.00,VWS V14.00,2013-03-27 14:20:00,
2013-03-27 09:25:00,42.3,33.6,30.40,WSW,241,4.0,7.0,71,0.00,,---,0.00,487.00,VWS V14.00,2013-03-27 14:25:00,
2013-03-27 09:30:00,42.9,33.8,30.40,SW,234,6.0,9.0,70,0.00,,---,0.00,508.00,VWS V14.00,2013-03-27 14:30:00,
2013-03-27 09:35:00,43.3,33.1,30.40,SSW,194,2.0,9.0,67,0.00,,---,0.00,524.00,VWS V14.00,2013-03-27 14:35:00,
2013-03-27 09:40:00,43.7,33.5,30.40,WSW,248,0.0,9.0,67,0.00,,---,0.00,538.00,VWS V14.00,2013-03-27 14:40:00,
2013-03-27 09:45:00,44.0,33.0,30.41,WSW,251,6.0,12.0,65,0.00,,---,0.00,557.00,VWS V14.00,2013-03-27 14:45:00,
2013-03-27 09:50:00,44.3,32.1,30.40,WSW,243,10.0,12.0,62,0.00,,---,0.00,570.00,VWS V14.00,2013-03-27 14:50:00,
2013-03-27 09:55:00,44.7,32.9,30.41,WSW,257,5.0,12.0,63,0.00,,---,0.00,587.00,VWS V14.00,2013-03-27 14:55:00,
2013-03-27 10:00:00,45.2,33.4,30.41,SW,235,5.0,7.0,63,0.00,,---,0.00,603.00,VWS V14.00,2013-03-27 15:00:00,
2013-03-27 10:05:00,45.9,32.0,30.41,SSW,208,9.0,13.0,58,0.00,,---,0.00,619.00,VWS V14.00,2013-03-27 15:05:00,
2013-03-27 10:10:00,46.1,33.0,30.41,SSW,198,11.0,13.0,60,0.00,,---,0.00,633.00,VWS V14.00,2013-03-27 15:10:00,
2013-03-27 10:15:00,46.3,32.3,30.41,SSW,211,4.0,13.0,58,0.00,,---,0.00,650.00,VWS V14.00,2013-03-27 15:15:00,
2013-03-27 10:20:00,46.5,32.1,30.41,SW,236,3.0,13.0,57,0.00,,---,0.00,661.00,VWS V14.00,2013-03-27 15:20:00,
2013-03-27 10:24:00,46.9,32.5,30.41,WSW,247,0.0,13.0,57,0.00,,---,0.00,675.00,VWS V14.00,2013-03-27 15:24:00,
2013-03-27 10:29:00,47.4,32.5,30.41,SW,229,0.0,7.0,56,0.00,,---,0.00,689.00,VWS V14.00,2013-03-27 15:29:00,
2013-03-27 10:30:00,47.1,32.7,30.41,SSW,202,2.0,13.0,57,0.00,,---,0.00,682.00,VWS V14.00,2013-03-27 15:30:00,
2013-03-27 10:34:00,48.0,33.1,30.41,SSW,196,9.0,9.0,56,0.00,,---,0.00,701.00,VWS V14.00,2013-03-27 15:34:00,
2013-03-27 10:39:00,48.2,33.3,30.41,South,191,4.0,9.0,56,0.00,,---,0.00,693.00,VWS V14.00,2013-03-27 15:39:00,
2013-03-27 10:44:00,48.5,32.6,30.41,WSW,247,0.0,9.0,54,0.00,,---,0.00,584.00,VWS V14.00,2013-03-27 15:44:00,
2013-03-27 10:49:00,48.7,32.3,30.41,West,273,5.0,9.0,53,0.00,,---,0.00,404.00,VWS V14.00,2013-03-27 15:49:00,
2013-03-27 10:54:00,48.8,32.4,30.41,SSW,203,6.0,9.0,53,0.00,,---,0.00,171.00,VWS V14.00,2013-03-27 15:54:00,
2013-03-27 10:59:00,48.9,32.5,30.41,SSW,198,0.0,13.0,53,0.00,,---,0.00,72.00,VWS V14.00,2013-03-27 15:59:00,
2013-03-27 11:00:00,48.8,32.0,30.41,South,190,0.0,9.0,52,0.00,,---,0.00,98.00,VWS V14.00,2013-03-27 16:00:00,
2013-03-27 11:04:00,49.0,31.7,30.41,WSW,257,4.0,13.0,51,0.00,,---,0.00,72.00,VWS V14.00,2013-03-27 16:04:00,
2013-03-27 11:09:00,49.2,31.9,30.41,WSW,238,6.0,13.0,51,0.00,,---,0.00,72.00,VWS V14.00,2013-03-27 16:09:00,
2013-03-27 11:14:00,49.4,32.5,30.41,SSW,192,0.0,13.0,52,0.00,,---,0.00,74.00,VWS V14.00,2013-03-27 16:14:00,
2013-03-27 11:19:00,49.6,31.7,30.40,SE,126,0.0,13.0,50,0.00,,---,0.00,74.00,VWS V14.00,2013-03-27 16:19:00,
2013-03-27 11:24:00,49.9,32.0,30.40,WSW,253,5.0,13.0,50,0.00,,---,0.00,76.00,VWS V14.00,2013-03-27 16:24:00,
2013-03-27 11:29:00,50.5,32.6,30.40,WNW,296,0.0,0.0,50,0.00,,---,0.00,76.00,VWS V14.00,2013-03-27 16:29:00,
2013-03-27 11:30:00,50.2,31.3,30.40,NW,325,0.0,13.0,48,0.00,,---,0.00,76.00,VWS V14.00,2013-03-27 16:30:00,
2013-03-27 11:34:00,51.1,33.1,30.40,SW,232,0.0,0.0,50,0.00,,---,0.00,105.00,VWS V14.00,2013-03-27 16:34:00,
2013-03-27 11:39:00,51.6,32.6,30.40,ESE,120,0.0,9.0,48,0.00,,---,0.00,352.00,VWS V14.00,2013-03-27 16:39:00,
2013-03-27 11:44:00,51.8,33.3,30.40,WSW,242,7.0,9.0,49,0.00,,---,0.00,722.00,VWS V14.00,2013-03-27 16:44:00,
2013-03-27 11:49:00,51.8,32.2,30.39,South,181,6.0,9.0,47,0.00,,---,0.00,854.00,VWS V14.00,2013-03-27 16:49:00,
2013-03-27 11:54:00,51.4,31.3,30.40,WSW,238,0.0,14.0,46,0.00,,---,0.00,861.00,VWS V14.00,2013-03-27 16:54:00,
2013-03-27 11:59:00,51.5,32.0,30.39,South,188,0.0,6.0,47,0.00,,---,0.00,867.00,VWS V14.00,2013-03-27 16:59:00,
2013-03-27 12:00:00,51.3,32.3,30.39,SSW,196,0.0,14.0,48,0.00,,---,0.00,863.00,VWS V14.00,2013-03-27 17:00:00,
2013-03-27 12:04:00,51.8,32.2,30.39,East,94,0.0,6.0,47,0.00,,---,0.00,874.00,VWS V14.00,2013-03-27 17:04:00,
2013-03-27 12:09:00,52.3,32.2,30.39,South,188,0.0,6.0,46,0.00,,---,0.00,882.00,VWS V14.00,2013-03-27 17:09:00,
2013-03-27 12:14:00,52.3,31.6,30.39,WSW,238,2.0,10.0,45,0.00,,---,0.00,886.00,VWS V14.00,2013-03-27 17:14:00,
2013-03-27 12:19:00,52.2,32.1,30.39,SSW,205,5.0,10.0,46,0.00,,---,0.00,891.00,VWS V14.00,2013-03-27 17:19:00,
2013-03-27 12:24:00,51.9,31.2,30.39,SSE,167,0.0,14.0,45,0.00,,---,0.00,902.00,VWS V14.00,2013-03-27 17:24:00,
2013-03-27 12:29:00,52.2,32.1,30.39,SSE,163,0.0,0.0,46,0.00,,---,0.00,912.00,VWS V14.00,2013-03-27 17:29:00,
2013-03-27 12:30:00,52.0,31.9,30.39,SSE,163,0.0,14.0,46,0.00,,---,0.00,905.00,VWS V14.00,2013-03-27 17:30:00,
2013-03-27 12:34:00,52.7,32.0,30.39,East,91,0.0,1.0,45,0.00,,---,0.00,851.00,VWS V14.00,2013-03-27 17:34:00,
2013-03-27 12:39:00,53.3,32.5,30.39,SSW,202,0.0,1.0,45,0.00,,---,0.00,893.00,VWS V14.00,2013-03-27 17:39:00,
2013-03-27 12:45:00,53.6,33.3,30.38,SSE,153,10.0,10.0,46,0.00,,---,0.00,958.00,VWS V14.00,2013-03-27 17:45:00,
2013-03-27 12:50:00,53.1,31.2,30.38,South,185,0.0,15.0,43,0.00,,---,0.00,432.00,VWS V14.00,2013-03-27 17:50:00,
2013-03-27 12:55:00,53.3,31.4,30.38,SSW,212,0.0,15.0,43,0.00,,---,0.00,780.00,VWS V14.00,2013-03-27 17:55:00,
2013-03-27 13:00:00,53.1,31.8,30.38,West,278,0.0,5.0,44,0.00,,---,0.00,916.00,VWS V14.00,2013-03-27 18:00:00,
2013-03-27 13:05:00,53.5,31.6,30.38,SW,234,0.0,5.0,43,0.00,,---,0.00,921.00,VWS V14.00,2013-03-27 18:05:00,
2013-03-27 13:10:00,54.1,32.1,30.38,West,273,3.0,6.0,43,0.00,,---,0.00,911.00,VWS V14.00,2013-03-27 18:10:00,
2013-03-27 13:15:00,54.4,32.4,30.38,SSW,200,1.0,11.0,43,0.00,,---,0.00,881.00,VWS V14.00,2013-03-27 18:15:00,
2013-03-27 13:20:00,54.5,32.5,30.37,SW,234,0.0,11.0,43,0.00,,---,0.00,823.00,VWS V14.00,2013-03-27 18:20:00,
2013-03-27 13:25:00,54.5,32.5,30.37,WSW,253,0.0,11.0,43,0.00,,---,0.00,772.00,VWS V14.00,2013-03-27 18:25:00,
2013-03-27 13:30:00,54.2,32.2,30.37,SW,229,0.0,10.0,43,0.00,,---,0.00,826.00,VWS V14.00,2013-03-27 18:30:00,
2013-03-27 13:35:00,54.7,33.8,30.37,SSW,200,3.0,10.0,45,0.00,,---,0.00,826.00,VWS V14.00,2013-03-27 18:35:00,
2013-03-27 13:40:00,54.7,33.2,30.37,South,187,4.0,10.0,44,0.00,,---,0.00,777.00,VWS V14.00,2013-03-27 18:40:00,
2013-03-27 13:45:00,54.5,33.0,30.36,SSW,195,1.0,11.0,44,0.00,,---,0.00,874.00,VWS V14.00,2013-03-27 18:45:00,
2013-03-27 13:50:00,54.6,33.7,30.36,SSW,196,4.0,18.0,45,0.00,,---,0.00,900.00,VWS V14.00,2013-03-27 18:50:00,
2013-03-27 13:55:00,54.9,33.4,30.36,WSW,244,1.0,18.0,44,0.00,,---,0.00,888.00,VWS V14.00,2013-03-27 18:55:00,
2013-03-27 14:00:00,55.2,33.7,30.35,SSW,211,0.0,12.0,44,0.00,,---,0.00,886.00,VWS V14.00,2013-03-27 19:00:00,
2013-03-27 14:05:00,54.9,32.8,30.35,WSW,253,3.0,12.0,43,0.00,,---,0.00,881.00,VWS V14.00,2013-03-27 19:05:00,
2013-03-27 14:10:00,55.3,33.8,30.35,NNW,340,1.0,12.0,44,0.00,,---,0.00,881.00,VWS V14.00,2013-03-27 19:10:00,
2013-03-27 14:15:00,55.7,32.4,30.34,NNW,342,0.0,12.0,41,0.00,,---,0.00,882.00,VWS V14.00,2013-03-27 19:15:00,
2013-03-27 14:20:00,55.7,32.4,30.34,West,259,0.0,12.0,41,0.00,,---,0.00,851.00,VWS V14.00,2013-03-27 19:20:00,
2013-03-27 14:25:00,55.8,34.2,30.34,SSE,153,0.0,12.0,44,0.00,,---,0.00,868.00,VWS V14.00,2013-03-27 19:25:00,
2013-03-27 14:30:00,56.1,33.3,30.34,WSW,255,0.0,4.0,42,0.00,,---,0.00,865.00,VWS V14.00,2013-03-27 19:30:00,
2013-03-27 14:35:00,56.7,33.9,30.33,SSW,198,7.0,13.0,42,0.00,,---,0.00,842.00,VWS V14.00,2013-03-27 19:35:00,
2013-03-27 14:40:00,56.2,33.4,30.33,WSW,246,1.0,13.0,42,0.00,,---,0.00,831.00,VWS V14.00,2013-03-27 19:40:00,
2013-03-27 14:45:00,56.2,34.0,30.32,SE,138,0.0,13.0,43,0.00,,---,0.00,826.00,VWS V14.00,2013-03-27 19:45:00,
2013-03-27 14:50:00,56.7,32.7,30.32,SE,130,0.0,13.0,40,0.00,,---,0.00,821.00,VWS V14.00,2013-03-27 19:50:00,
2013-03-27 14:55:00,56.9,32.8,30.32,West,262,2.0,13.0,40,0.00,,---,0.00,814.00,VWS V14.00,2013-03-27 19:55:00,
2013-03-27 15:00:00,56.9,34.1,30.32,SW,235,0.0,1.0,42,0.00,,---,0.00,800.00,VWS V14.00,2013-03-27 20:00:00,
2013-03-27 15:05:00,57.3,32.6,30.32,ENE,62,4.0,7.0,39,0.00,,---,0.00,793.00,VWS V14.00,2013-03-27 20:05:00,
2013-03-27 15:10:00,57.4,33.9,30.31,WSW,253,2.0,9.0,41,0.00,,---,0.00,779.00,VWS V14.00,2013-03-27 20:10:00,
2013-03-27 15:15:00,57.5,32.1,30.31,WNW,288,0.0,9.0,38,0.00,,---,0.00,763.00,VWS V14.00,2013-03-27 20:15:00,
2013-03-27 15:20:00,57.1,33.0,30.31,West,273,1.0,10.0,40,0.00,,---,0.00,756.00,VWS V14.00,2013-03-27 20:20:00,
2013-03-27 15:25:00,57.5,32.8,30.30,West,267,1.0,13.0,39,0.00,,---,0.00,756.00,VWS V14.00,2013-03-27 20:25:00,
2013-03-27 15:30:00,57.2,31.2,30.30,WNW,288,0.0,2.0,37,0.00,,---,0.00,737.00,VWS V14.00,2013-03-27 20:30:00,
2013-03-27 15:35:00,57.1,31.8,30.30,NNW,344,0.0,5.0,38,0.00,,---,0.00,724.00,VWS V14.00,2013-03-27 20:35:00,
2013-03-27 15:40:00,57.1,31.8,30.30,West,281,0.0,12.0,38,0.00,,---,0.00,693.00,VWS V14.00,2013-03-27 20:40:00,
2013-03-27 15:45:00,57.1,33.0,30.30,West,262,0.0,12.0,40,0.00,,---,0.00,689.00,VWS V14.00,2013-03-27 20:45:00,
2013-03-27 15:50:00,57.5,32.8,30.29,WSW,248,0.0,12.0,39,0.00,,---,0.00,666.00,VWS V14.00,2013-03-27 20:50:00,
2013-03-27 15:55:00,58.0,33.2,30.29,SW,234,6.0,12.0,39,0.00,,---,0.00,656.00,VWS V14.00,2013-03-27 20:55:00,
2013-03-27 16:00:00,57.6,32.2,30.29,West,271,0.0,5.0,38,0.00,,---,0.00,638.00,VWS V14.00,2013-03-27 21:00:00,
2013-03-27 16:05:00,57.6,32.2,30.29,West,278,0.0,7.0,38,0.00,,---,0.00,584.00,VWS V14.00,2013-03-27 21:05:00,
2013-03-27 16:10:00,57.6,32.2,30.29,NW,313,0.0,7.0,38,0.00,,---,0.00,568.00,VWS V14.00,2013-03-27 21:10:00,
2013-03-27 16:15:00,57.9,32.5,30.29,WNW,282,0.0,7.0,38,0.00,,---,0.00,582.00,VWS V14.00,2013-03-27 21:15:00,
2013-03-27 16:20:00,58.3,33.5,30.29,WNW,296,0.0,7.0,39,0.00,,---,0.00,594.00,VWS V14.00,2013-03-27 21:20:00,
2013-03-27 16:25:00,58.5,33.0,30.29,SW,225,0.0,7.0,38,0.00,,---,0.00,559.00,VWS V14.00,2013-03-27 21:25:00,
2013-03-27 16:30:00,58.6,33.7,30.29,SSW,198,3.0,4.0,39,0.00,,---,0.00,527.00,VWS V14.00,2013-03-27 21:30:00,
2013-03-27 16:35:00,58.3,34.7,30.29,WSW,257,2.0,11.0,41,0.00,,---,0.00,541.00,VWS V14.00,2013-03-27 21:35:00,
2013-03-27 16:40:00,58.1,33.9,30.29,NNW,347,0.0,11.0,40,0.00,,---,0.00,526.00,VWS V14.00,2013-03-27 21:40:00,
2013-03-27 16:45:00,57.9,33.1,30.29,WSW,244,0.0,11.0,39,0.00,,---,0.00,506.00,VWS V14.00,2013-03-27 21:45:00,
2013-03-27 16:50:00,58.0,33.2,30.29,SW,233,0.0,11.0,39,0.00,,---,0.00,487.00,VWS V14.00,2013-03-27 21:50:00,
2013-03-27 16:55:00,57.8,31.7,30.29,WSW,239,0.0,11.0,37,0.00,,---,0.00,469.00,VWS V14.00,2013-03-27 21:55:00,
2013-03-27 17:00:00,57.6,32.8,30.29,West,259,1.0,6.0,39,0.00,,---,0.00,454.00,VWS V14.00,2013-03-27 22:00:00,
2013-03-27 17:05:00,57.8,33.0,30.29,West,261,0.0,9.0,39,0.00,,---,0.00,436.00,VWS V14.00,2013-03-27 22:05:00,
2013-03-27 17:10:00,57.8,33.0,30.29,NW,315,0.0,9.0,39,0.00,,---,0.00,417.00,VWS V14.00,2013-03-27 22:10:00,
2013-03-27 17:15:00,57.8,33.7,30.29,West,263,1.0,9.0,40,0.00,,---,0.00,397.00,VWS V14.00,2013-03-27 22:15:00,
2013-03-27 17:20:00,57.7,33.6,30.29,West,271,0.0,9.0,40,0.00,,---,0.00,378.00,VWS V14.00,2013-03-27 22:20:00,
2013-03-27 17:25:00,57.7,34.2,30.29,WSW,251,0.0,9.0,41,0.00,,---,0.00,359.00,VWS V14.00,2013-03-27 22:25:00,
2013-03-27 17:30:00,57.7,33.6,30.29,WNW,286,0.0,3.0,40,0.00,,---,0.00,343.00,VWS V14.00,2013-03-27 22:30:00,
2013-03-27 17:35:00,57.6,33.5,30.29,WNW,286,0.0,3.0,40,0.00,,---,0.00,323.00,VWS V14.00,2013-03-27 22:35:00,
2013-03-27 17:40:00,57.4,33.9,30.29,WSW,239,0.0,10.0,41,0.00,,---,0.00,304.00,VWS V14.00,2013-03-27 22:40:00,
2013-03-27 17:45:00,57.0,33.5,30.28,West,264,0.0,10.0,41,0.00,,---,0.00,287.00,VWS V14.00,2013-03-27 22:45:00,
2013-03-27 17:50:00,56.8,33.4,30.28,WSW,257,0.0,10.0,41,0.00,,---,0.00,269.00,VWS V14.00,2013-03-27 22:50:00,
2013-03-27 17:55:00,56.9,33.5,30.28,NW,313,1.0,10.0,41,0.00,,---,0.00,251.00,VWS V14.00,2013-03-27 22:55:00,
2013-03-27 18:00:00,57.0,33.5,30.28,WSW,244,1.0,6.0,41,0.00,,---,0.00,220.00,VWS V14.00,2013-03-27 23:00:00,
2013-03-27 18:05:00,56.6,33.2,30.29,NW,317,0.0,6.0,41,0.00,,---,0.00,156.00,VWS V14.00,2013-03-27 23:05:00,
2013-03-27 18:10:00,56.4,33.6,30.28,WNW,284,0.0,6.0,42,0.00,,---,0.00,93.00,VWS V14.00,2013-03-27 23:10:00,
2013-03-27 18:15:00,56.2,32.8,30.28,WNW,289,0.0,6.0,41,0.00,,---,0.00,98.00,VWS V14.00,2013-03-27 23:15:00,
2013-03-27 18:20:00,56.0,33.2,30.28,NW,326,0.0,6.0,42,0.00,,---,0.00,76.00,VWS V14.00,2013-03-27 23:20:00,
2013-03-27 18:25:00,55.8,33.7,30.28,NW,315,0.0,6.0,43,0.00,,---,0.00,88.00,VWS V14.00,2013-03-27 23:25:00,
2013-03-27 18:30:00,55.7,33.6,30.28,NW,314,0.0,0.0,43,0.00,,---,0.00,114.00,VWS V14.00,2013-03-27 23:30:00,
2013-03-27 18:35:00,55.7,33.6,30.28,NW,314,0.0,0.0,43,0.00,,---,0.00,91.00,VWS V14.00,2013-03-27 23:35:00,
2013-03-27 18:40:00,55.7,33.6,30.28,NW,314,0.0,0.0,43,0.00,,---,0.00,46.00,VWS V14.00,2013-03-27 23:40:00,
2013-03-27 18:45:00,55.6,33.5,30.28,NW,314,0.0,0.0,43,0.00,,---,0.00,42.00,VWS V14.00,2013-03-27 23:45:00,
2013-03-27 18:50:00,55.6,34.0,30.28,NW,314,0.0,0.0,44,0.00,,---,0.00,30.00,VWS V14.00,2013-03-27 23:50:00,
2013-03-27 18:55:00,55.3,33.8,30.28,NW,305,0.0,0.0,44,0.00,,---,0.00,25.00,VWS V14.00,2013-03-27 23:55:00,
2013-03-27 19:00:00,55.1,33.6,30.28,NW,305,0.0,0.0,44,0.00,,---,0.00,18.00,VWS V14.00,2013-03-28 00:00:00,
2013-03-27 19:05:00,54.9,33.4,30.28,NW,305,0.0,0.0,44,0.00,,---,0.00,14.00,VWS V14.00,2013-03-28 00:05:00,
2013-03-27 19:10:00,54.7,33.2,30.28,NW,305,0.0,0.0,44,0.00,,---,0.00,9.00,VWS V14.00,2013-03-28 00:10:00,
2013-03-27 19:15:00,54.5,33.6,30.28,NW,305,0.0,0.0,45,0.00,,---,0.00,7.00,VWS V14.00,2013-03-28 00:15:00,
2013-03-27 19:20:00,54.3,33.4,30.28,NW,305,0.0,0.0,45,0.00,,---,0.00,0.00,VWS V14.00,2013-03-28 00:20:00,
2013-03-27 19:25:00,54.1,33.8,30.28,NW,305,0.0,0.0,46,0.00,,---,0.00,0.00,VWS V14.00,2013-03-28 00:25:00,
2013-03-27 19:30:00,54.0,33.7,30.28,NW,305,0.0,0.0,46,0.00,,---,0.00,0.00,VWS V14.00,2013-03-28 00:30:00,
2013-03-27 19:35:00,53.7,35.5,30.28,NW,305,0.0,0.0,50,0.00,,---,0.00,0.00,VWS V14.00,2013-03-28 00:35:00,
2013-03-27 19:40:00,53.4,35.7,30.28,NW,305,0.0,0.0,51,0.00,,---,0.00,0.00,VWS V14.00,2013-03-28 00:40:00,
2013-03-27 19:45:00,53.0,34.9,30.28,NW,305,0.0,0.0,50,0.00,,---,0.00,0.00,VWS V14.00,2013-03-28 00:45:00,
2013-03-27 19:50:00,52.5,34.4,30.28,NW,305,0.0,0.0,50,0.00,,---,0.00,0.00,VWS V14.00,2013-03-28 00:50:00,
2013-03-27 19:55:00,52.3,35.7,30.28,NW,305,0.0,0.0,53,0.00,,---,0.00,0.00,VWS V14.00,2013-03-28 00:55:00,
2013-03-27 20:00:00,52.0,34.5,30.28,NW,305,0.0,0.0,51,0.00,,---,0.00,0.00,VWS V14.00,2013-03-28 01:00:00,
2013-03-27 20:05:00,51.7,35.6,30.28,NW,305,0.0,0.0,54,0.00,,---,0.00,0.00,VWS V14.00,2013-03-28 01:05:00,
2013-03-27 20:10:00,51.4,34.9,30.28,NW,305,0.0,0.0,53,0.00,,---,0.00,0.00,VWS V14.00,2013-03-28 01:10:00,
2013-03-27 20:15:00,51.2,35.6,30.27,NW,305,0.0,0.0,55,0.00,,---,0.00,0.00,VWS V14.00,2013-03-28 01:15:00,
2013-03-27 20:20:00,50.9,36.7,30.28,NW,305,0.0,0.0,58,0.00,,---,0.00,0.00,VWS V14.00,2013-03-28 01:20:00,
2013-03-27 20:25:00,50.6,35.9,30.28,NW,305,0.0,0.0,57,0.00,,---,0.00,0.00,VWS V14.00,2013-03-28 01:25:00,
2013-03-27 20:30:00,50.3,36.1,30.28,NW,305,0.0,0.0,58,0.00,,---,0.00,0.00,VWS V14.00,2013-03-28 01:30:00,
2013-03-27 20:35:00,50.1,36.3,30.28,NW,305,0.0,0.0,59,0.00,,---,0.00,0.00,VWS V14.00,2013-03-28 01:35:00,
2013-03-27 20:40:00,49.7,36.8,30.28,NW,305,0.0,0.0,61,0.00,,---,0.00,0.00,VWS V14.00,2013-03-28 01:40:00,
2013-03-27 20:45:00,49.2,37.2,30.27,NW,305,0.0,0.0,63,0.00,,---,0.00,0.00,VWS V14.00,2013-03-28 01:45:00,
2013-03-27 20:50:00,48.9,36.1,30.28,NW,305,0.0,0.0,61,0.00,,---,0.00,0.00,VWS V14.00,2013-03-28 01:50:00,
2013-03-27 20:55:00,48.6,36.2,30.28,NW,305,0.0,0.0,62,0.00,,---,0.00,0.00,VWS V14.00,2013-03-28 01:55:00,
2013-03-27 21:00:00,48.3,35.5,30.28,NW,305,0.0,0.0,61,0.00,,---,0.00,0.00,VWS V14.00,2013-03-28 02:00:00,
2013-03-27 21:05:00,48.0,35.2,30.28,NW,305,0.0,0.0,61,0.00,,---,0.00,0.00,VWS V14.00,2013-03-28 02:05:00,
2013-03-27 21:10:00,47.8,35.0,30.28,NW,305,0.0,0.0,61,0.00,,---,0.00,0.00,VWS V14.00,2013-03-28 02:10:00,
2013-03-27 21:15:00,47.6,35.2,30.27,NW,305,0.0,0.0,62,0.00,,---,0.00,0.00,VWS V14.00,2013-03-28 02:15:00,
2013-03-27 21:20:00,47.2,34.9,30.27,NW,305,0.0,0.0,62,0.00,,---,0.00,0.00,VWS V14.00,2013-03-28 02:20:00,
2013-03-27 21:25:00,46.8,35.3,30.27,NW,305,0.0,0.0,64,0.00,,---,0.00,0.00,VWS V14.00,2013-03-28 02:25:00,
2013-03-27 21:30:00,46.6,34.7,30.27,NW,305,0.0,0.0,63,0.00,,---,0.00,0.00,VWS V14.00,2013-03-28 02:30:00,
2013-03-27 21:35:00,46.4,34.5,30.27,NW,305,0.0,0.0,63,0.00,,---,0.00,0.00,VWS V14.00,2013-03-28 02:35:00,
2013-03-27 21:40:00,46.2,34.3,30.27,NW,305,0.0,0.0,63,0.00,,---,0.00,0.00,VWS V14.00,2013-03-28 02:40:00,
2013-03-27 21:45:00,46.0,34.1,30.27,NW,305,0.0,0.0,63,0.00,,---,0.00,0.00,VWS V14.00,2013-03-28 02:45:00,
2013-03-27 21:50:00,45.9,33.6,30.27,NW,305,0.0,0.0,62,0.00,,---,0.00,0.00,VWS V14.00,2013-03-28 02:50:00,
2013-03-27 21:55:00,45.7,33.4,30.27,NW,305,0.0,0.0,62,0.00,,---,0.00,0.00,VWS V14.00,2013-03-28 02:55:00,
2013-03-27 22:00:00,45.5,34.0,30.27,NW,305,0.0,0.0,64,0.00,,---,0.00,0.00,VWS V14.00,2013-03-28 03:00:00,
2013-03-27 22:05:00,45.3,35.0,30.27,NW,305,0.0,0.0,67,0.00,,---,0.00,0.00,VWS V14.00,2013-03-28 03:05:00,
2013-03-27 22:10:00,45.1,34.8,30.27,NW,305,0.0,0.0,67,0.00,,---,0.00,0.00,VWS V14.00,2013-03-28 03:10:00,
2013-03-27 22:15:00,44.9,34.6,30.27,NW,305,0.0,0.0,67,0.00,,---,0.00,0.00,VWS V14.00,2013-03-28 03:15:00,
2013-03-27 22:20:00,44.7,34.4,30.27,NW,305,0.0,0.0,67,0.00,,---,0.00,0.00,VWS V14.00,2013-03-28 03:20:00,
2013-03-27 22:25:00,44.5,34.6,30.27,NW,305,0.0,0.0,68,0.00,,---,0.00,0.00,VWS V14.00,2013-03-28 03:25:00,
2013-03-27 22:30:00,44.4,34.9,30.28,NW,305,0.0,0.0,69,0.00,,---,0.00,0.00,VWS V14.00,2013-03-28 03:30:00,
2013-03-27 22:35:00,44.1,35.0,30.28,NW,305,0.0,0.0,70,0.00,,---,0.00,0.00,VWS V14.00,2013-03-28 03:35:00,
2013-03-27 22:40:00,43.9,35.1,30.28,NW,305,0.0,0.0,71,0.00,,---,0.00,0.00,VWS V14.00,2013-03-28 03:40:00,
2013-03-27 22:45:00,43.8,35.0,30.28,NW,305,0.0,0.0,71,0.00,,---,0.00,0.00,VWS V14.00,2013-03-28 03:45:00,
2013-03-27 22:50:00,43.6,34.5,30.29,NW,305,0.0,0.0,70,0.00,,---,0.00,0.00,VWS V14.00,2013-03-28 03:50:00,
2013-03-27 22:55:00,43.5,34.4,30.28,NW,305,0.0,0.0,70,0.00,,---,0.00,0.00,VWS V14.00,2013-03-28 03:55:00,
2013-03-27 23:00:00,43.3,34.2,30.29,NW,305,0.0,0.0,70,0.00,,---,0.00,0.00,VWS V14.00,2013-03-28 04:00:00,
2013-03-27 23:05:00,43.1,34.7,30.28,NW,305,0.0,0.0,72,0.00,,---,0.00,0.00,VWS V14.00,2013-03-28 04:05:00,
2013-03-27 23:10:00,42.8,34.8,30.28,NW,305,0.0,0.0,73,0.00,,---,0.00,0.00,VWS V14.00,2013-03-28 04:10:00,
2013-03-27 23:15:00,42.6,34.2,30.28,NW,305,0.0,0.0,72,0.00,,---,0.00,0.00,VWS V14.00,2013-03-28 04:15:00,
2013-03-27 23:20:00,42.3,33.9,30.29,NW,305,0.0,0.0,72,0.00,,---,0.00,0.00,VWS V14.00,2013-03-28 04:20:00,
2013-03-27 23:25:00,42.0,33.6,30.29,NW,305,0.0,0.0,72,0.00,,---,0.00,0.00,VWS V14.00,2013-03-28 04:25:00,
2013-03-27 23:30:00,41.7,34.7,30.29,NW,305,0.0,0.0,76,0.00,,---,0.00,0.00,VWS V14.00,2013-03-28 04:30:00,
2013-03-27 23:35:00,41.6,34.6,30.28,NW,305,0.0,0.0,76,0.00,,---,0.00,0.00,VWS V14.00,2013-03-28 04:35:00,
2013-03-27 23:40:00,41.5,34.5,30.29,NW,305,0.0,0.0,76,0.00,,---,0.00,0.00,VWS V14.00,2013-03-28 04:40:00,
2013-03-27 23:45:00,41.4,34.4,30.29,NW,305,0.0,0.0,76,0.00,,---,0.00,0.00,VWS V14.00,2013-03-28 04:45:00,
2013-03-27 23:50:00,41.3,34.7,30.29,NW,305,0.0,0.0,77,0.00,,---,0.00,0.00,VWS V14.00,2013-03-28 04:50:00,
2013-03-27 23:55:00,41.0,34.3,30.29,NW,305,0.0,0.0,77,0.00,,---,0.00,0.00,VWS V14.00,2013-03-28 04:55:00,